一网星座-0702 (ONEWEB-0702)

导读 | 星芒AI

ONEWE-0702卫星是OneWeb星座计划中的一颗低轨通信卫星,旨在为全球提供高速互联网服务。该卫星由空客防务与航天公司制造,采用标准化设计,以降低发射和运营成本。它运行在约1200公里的近地轨道,与其他OneWeb卫星协同工作,支持偏远和农村地区的宽带接入。2023年,OneWeb逐步恢复卫星发射计划,以完善其全球覆盖网络。ONEWE-0702的部署有助于增强OneWeb在全球卫星互联网市场的竞争力。

基本信息
目录编号:
61608
目录名称:
ONEWEB-0702
国际标识:
2024-188Q
轨道中心:
EARTH
卫星名称:
一网星座-0702
卫星全名:
一网星座-0702 (ONEWEB-0702)
卫星状态:
在轨 (已飞行363 天)
发射日期:
2024-10-20 UTC
国别 :
英国 (GB)
星等 :
--
轨道信息
数据来源 国际轨道数据
星历时间: 2025-10-18T15:28:23+0800
6小时前
查看轨道信息
半长轴: 7595.822km
偏心率: 0.000258
轨道倾角: 87.877°
近地点辐角 100.334°
升交点赤经 69.170°
平近点角 259.808°
近地点: 1215.727km
远地点: 1219.647km
周期: 109.805分钟
每日圈数: 13.114164
详细信息
卫星平台:
0702
平衡模式:
三轴稳定
覆盖范围:
全球
运营商:
一网卫星公司
运营商所在国:
英国
制造商(研发单位):
空客防务与航天公司
制造商所在国:
法国大都会
使用方式:
暂无
卫星简介
OneWeb 计划是一项全球卫星互联网项目,旨在通过发射低轨道卫星,为全球偏远和无法接入互联网的地区提供高速网络连接。OneWeb 的目标是打造一个由数百颗卫星组成的网络,帮助缩小全球数字鸿沟,推动教育、医疗和经济发展。
2D轨道图
3D轨道图
轨道高度分析图
轨道倾角分析图
轨道综合分析图
查看轨道综合分析图